Wind_Speed
17 17 17 17 17 17 16 15 15 15 17 17 17 17 18 19 20 21 22 24 25 26 27 29 31 33 34 36 36 36 36 34 33 33 33 35 36 38 40 41 42 42 42 42
16 16 16 16 16 16 15 15 15 15 17 17 17 17 17 18 18 19 20 21 22 23 24 25 27 29 30 30 30 28 26 23 22 21 22 23 26 28 30 31 32 34 34 34
16 16 16 16 16 15 15 15 15 15 16 16 16 16 16 16 17 17 17 17 18 19 19 21 23 24 25 25 24 22 20 17 14 11 12 14 17 19 21 23 25 26 27 27
16 16 16 16 15 15 15 15 14 14 15 14 14 14 14 14 14 14 13 14 14 15 16 18 20 20 20 20 19 17 15 11 8 5 6 8 11 14 17 18 19 20 22 24
16 16 16 15 15 15 15 14 14 14 13 13 12 12 12 12 12 11 12 13 13 13 15 17 17 17 17 17 17 14 11 9 6 2 2 5 7 10 12 14 16 18 19 21
16 16 16 16 15 15 14 14 13 13 12 12 12 11 11 10 10 11 11 12 12 12 13 15 15 15 14 14 14 13 11 8 6 3 1 3 5 7 9 11 13 15 17 21
16 16 16 16 15 15 15 13 13 12 12 11 11 11 11 10 11 11 11 11 11 11 11 12 13 13 12 12 11 10 9 8 7 5 3 1 2 5 7 9 12 14 17 19
16 16 16 16 16 16 15 14 13 12 11 11 11 11 10 11 11 11 10 10 10 10 11 10 10 10 10 10 9 8 7 7 6 5 4 2 2 4 6 8 11 14 17 20
16 16 16 17 16 16 15 14 13 13 12 11 11 11 10 10 11 10 10 10 10 10 10 9 9 9 8 8 8 7 7 7 6 6 5 4 5 6 8 11 14 17 20 22
16 16 17 17 17 16 15 15 14 14 13 12 11 11 11 11 11 11 10 10 10 9 9 8 8 8 8 8 7 6 7 7 7 7 7 8 9 10 12 15 17 19 22 24
17 18 17 17 18 17 16 15 15 15 15 14 13 12 12 12 11 11 10 10 9 9 8 8 8 8 8 7 7 7 8 8 9 10 11 12 13 15 17 18 20 22 24 26
17 18 18 18 18 18 18 17 16 16 15 15 14 14 13 13 12 12 11 10 9 9 9 8 8 8 8 7 8 9 10 11 12 13 14 16 17 18 20 21 23 24 26 28
18 18 18 19 19 19 19 18 18 17 17 17 16 15 14 14 13 12 12 11 10 10 9 9 9 9 9 10 11 12 13 14 15 16 17 18 19 21 22 23 24 26 28 30
19 19 19 19 20 20 20 20 19 18 18 18 18 17 16 15 14 14 13 12 12 11 11 11 11 12 12 13 14 15 16 17 17 18 20 21 22 23 24 25 27 28 30 33
20 19 19 20 20 21 21 20 20 19 19 18 18 18 18 17 16 15 14 14 14 13 13 14 14 14 15 16 17 18 18 19 20 21 22 23 24 25 26 27 29 31 33 35
21 20 20 20 21 21 21 21 20 20 19 19 18 18 18 18 17 16 16 16 16 16 16 16 17 17 17 18 19 19 20 21 22 23 23 24 26 27 28 30 31 33 36 38
20 20 20 20 21 22 22 21 21 20 20 19 19 19 18 18 18 17 17 18 18 18 18 19 19 19 20 20 20 21 22 23 24 24 25 26 27 29 30 32 34 36 38 40
19 19 19 19 20 21 21 22 22 21 21 20 20 19 19 19 19 19 18 19 19 19 20 20 21 21 21 21 22 23 23 24 25 25 27 28 29 30 32 34 36 38 40 43
18 18 18 19 19 20 20 21 21 21 21 21 21 21 20 20 19 19 19 19 20 20 21 22 22 22 22 22 23 24 24 25 26 27 28 29 30 32 33 35 38 40 42 44
16 17 17 18 19 19 19 20 20 21 21 22 22 21 21 21 20 20 20 20 21 21 22 22 22 23 23 24 24 25 25 26 27 28 29 30 32 33 35 37 39 41 43 44
15 16 16 17 17 18 19 19 19 20 20 21 22 22 22 21 21 21 21 21 21 21 22 22 23 23 24 24 25 25 26 27 28 29 30 31 33 35 36 38 40 42 43 45
15 15 16 16 17 17 18 19 19 20 20 20 21 22 22 22 22 22 22 22 22 22 23 23 24 24 24 25 25 26 27 28 29 30 31 33 34 36 37 39 40 42 44 46
16 16 17 18 18 19 19 20 20 21 21 21 21 22 22 23 23 23 23 23 23 23 24 24 25 25 25 25 26 27 28 28 29 31 32 34 35 36 38 39 41 43 45 46
18 18 18 19 19 20 20 20 21 21 22 22 22 23 23 23 24 24 24 24 24 24 25 25 25 25 26 26 27 28 29 29 31 32 33 35 36 37 39 40 41 43 45 46
21 21 21 21 21 21 21 22 22 23 23 23 24 24 25 25 25 25 25 25 25 25 26 26 26 26 27 27 28 29 30 31 32 33 34 36 37 38 39 40 42 44 45 47
23 23 24 24 24 24 24 24 25 25 25 25 25 25 25 26 26 26 26 26 26 26 26 26 27 27 28 28 29 29 31 32 33 34 35 36 37 38 40 41 42 44 45 47
25 26 26 26 27 27 27 27 27 27 27 27 28 28 28 28 28 28 28 28 28 28 28 28 29 29 29 29 30 31 32 32 33 34 35 36 37 39 40 41 42 44 46 46
Wind_Direction
200 201 204 208 214 219 224 229 233 238 246 253 257 260 265 271 276 281 285 288 291 294 298 302 304 305 306 305 304 303 298 290 280 271 264 257 252 249 247 246 246 247 249 251
203 206 210 214 220 224 229 232 236 241 247 254 259 264 270 277 281 285 290 292 297 303 307 310 312 313 313 314 314 314 308 300 288 273 261 251 247 243 240 239 241 244 247 250
208 212 216 220 224 228 232 234 238 242 249 254 258 264 272 279 283 287 293 297 302 308 315 320 322 323 325 325 325 325 321 313 300 278 257 245 235 230 229 232 236 239 243 247
214 217 221 223 227 231 235 237 240 245 252 254 257 265 273 279 284 287 294 300 308 314 320 327 330 332 335 337 336 335 335 333 323 291 250 229 217 218 223 229 233 236 241 245
220 222 225 226 228 231 235 239 242 247 251 255 260 267 274 279 283 287 293 302 311 319 326 331 335 338 342 346 349 350 349 348 347 332 240 216 211 215 218 226 231 234 240 247
224 225 226 226 228 230 234 239 241 246 252 256 261 269 276 281 286 291 297 305 313 319 329 334 338 343 346 350 356 360 3 7 18 32 114 179 195 210 215 224 232 238 249 258
226 226 228 228 228 229 232 236 242 248 252 257 263 270 274 281 289 294 301 305 312 319 327 334 338 346 353 357 360 6 14 27 33 46 73 137 210 227 235 240 246 254 264 269
227 227 227 228 229 230 233 236 242 248 253 259 266 270 273 279 288 294 301 307 312 317 324 329 338 347 354 2 8 14 18 21 23 27 23 356 292 283 274 272 273 278 281 283
229 230 229 229 231 232 233 237 243 249 256 262 267 270 275 280 285 292 296 304 313 316 321 324 329 334 339 347 355 3 2 2 5 4 359 345 324 307 301 295 292 291 291 292
231 231 231 230 231 232 234 238 243 249 255 260 265 272 276 279 282 286 293 298 306 312 316 321 327 330 333 336 343 351 355 357 354 348 340 331 322 314 308 304 302 301 301 301
232 232 232 233 233 234 236 240 243 248 253 257 263 270 274 277 279 283 286 292 300 304 309 315 322 327 331 334 336 337 338 338 336 331 326 322 317 313 310 308 307 306 305 305
234 235 235 235 236 236 239 242 246 249 253 255 260 267 271 274 275 277 280 285 292 297 303 310 317 321 321 321 322 324 324 324 324 322 320 318 316 313 312 311 310 309 309 309
237 238 238 238 239 239 241 244 247 249 252 255 259 263 267 269 270 271 275 279 284 289 295 302 307 311 310 309 310 313 315 316 317 317 317 316 315 314 313 312 312 311 312 312
239 239 240 240 241 241 243 245 248 250 253 256 258 259 263 264 266 268 271 272 275 281 287 294 298 301 302 302 304 307 310 311 313 314 315 315 314 314 313 313 314 314 314 315
243 242 242 242 243 242 243 245 247 249 252 256 258 259 260 262 263 265 266 267 269 274 280 285 291 296 299 300 301 304 307 309 311 312 312 313 313 313 314 314 315 315 316 316
246 245 243 243 243 243 244 245 247 249 252 256 258 258 259 259 261 263 264 265 267 271 277 282 287 292 296 298 300 302 304 307 309 310 311 311 312 313 314 315 316 317 318 318
248 247 245 243 243 244 245 246 248 250 253 255 257 258 258 258 260 262 263 264 266 271 276 280 284 289 293 296 298 300 303 305 307 308 309 311 312 313 314 316 317 318 319 319
248 247 246 246 245 246 246 247 248 250 252 254 255 257 258 259 259 261 263 264 266 271 275 279 283 286 290 294 296 299 302 304 306 308 309 310 312 314 315 317 318 319 319 320
247 247 247 247 248 248 247 248 249 251 252 253 254 255 256 258 259 260 262 265 268 272 275 277 280 284 288 291 294 297 301 304 306 308 309 310 312 314 316 317 319 320 320 321
248 246 247 248 248 249 250 250 250 252 253 253 253 254 256 257 259 260 263 266 270 272 274 275 278 282 286 289 293 296 300 303 305 307 308 310 312 314 316 318 319 320 322 323
249 247 247 248 249 250 251 252 253 254 255 255 254 254 256 257 259 261 263 267 270 272 274 276 278 282 285 289 292 296 299 302 304 306 308 310 313 314 316 318 320 321 322 323
250 250 250 251 253 254 254 255 256 257 257 258 256 256 257 258 259 260 263 266 269 271 274 277 280 282 285 288 292 296 299 301 304 306 308 311 313 315 316 318 320 321 323 323
256 256 255 256 257 258 258 259 259 260 260 259 259 259 258 259 260 262 264 267 269 271 274 277 279 281 284 289 293 296 299 301 304 306 308 311 313 315 317 318 320 321 322 323
261 260 259 259 260 261 261 261 262 262 262 261 260 260 260 261 261 263 265 267 268 270 273 276 278 281 285 289 292 296 298 301 304 306 307 310 312 314 316 318 320 321 322 323
264 263 263 263 263 264 263 263 264 264 264 263 261 260 260 260 260 262 265 267 269 271 274 277 279 282 285 288 291 295 298 301 303 305 307 309 312 314 316 318 319 321 322 323
266 265 265 265 265 265 266 265 265 265 265 264 263 262 261 260 260 262 264 266 268 270 273 275 279 282 285 288 290 294 298 301 303 305 307 309 312 314 315 317 319 320 322 323
268 268 268 269 268 268 267 267 267 266 266 265 265 263 263 263 263 263 264 265 266 269 272 275 278 281 285 287 290 293 297 301 303 305 307 309 312 314 315 317 318 320 321 323
Height
5620 5624 5627 5631 5634 5637 5640 5643 5646 5647 5648 5649 5650 5651 5651 5651 5650 5650 5649 5647 5644 5642 5638 5633 5628 5623 5616 5609 5601 5593 5586 5580 5576 5575 5576 5578 5582 5588 5594 5601 5607 5614 5619 5623
5619 5622 5625 5628 5631 5634 5637 5639 5641 5643 5644 5645 5645 5645 5645 5645 5645 5644 5642 5640 5638 5635 5631 5626 5621 5615 5609 5602 5594 5586 5579 5574 5570 5569 5569 5572 5576 5581 5587 5594 5600 5606 5611 5616
5618 5621 5623 5627 5629 5632 5634 5636 5638 5639 5640 5640 5641 5641 5641 5641 5640 5638 5637 5635 5632 5629 5625 5621 5615 5610 5603 5597 5590 5583 5577 5572 5569 5567 5567 5570 5573 5578 5584 5590 5595 5601 5605 5610
5616 5619 5622 5626 5627 5629 5630 5632 5634 5634 5635 5636 5636 5636 5636 5636 5635 5634 5632 5630 5628 5624 5621 5617 5611 5606 5600 5594 5588 5583 5578 5574 5571 5569 5569 5570 5574 5578 5583 5587 5592 5597 5601 5604
5614 5616 5619 5622 5623 5625 5627 5628 5629 5630 5631 5632 5632 5632 5632 5632 5631 5630 5628 5626 5624 5621 5617 5614 5609 5604 5599 5594 5589 5584 5580 5576 5574 5572 5572 5574 5576 5579 5583 5587 5591 5595 5598 5600
5611 5613 5616 5619 5620 5621 5624 5625 5626 5627 5628 5628 5629 5629 5629 5628 5627 5626 5624 5623 5620 5618 5615 5611 5607 5603 5598 5594 5590 5586 5582 5579 5577 5576 5576 5577 5579 5582 5584 5587 5590 5593 5595 5596
5607 5609 5612 5615 5616 5619 5622 5623 5623 5623 5624 5624 5625 5625 5625 5624 5623 5622 5621 5619 5617 5615 5612 5609 5606 5603 5599 5595 5592 5589 5586 5583 5581 5581 5581 5581 5582 5584 5585 5587 5589 5590 5592 5592
5604 5606 5611 5611 5613 5615 5617 5618 5619 5620 5620 5621 5621 5621 5621 5621 5620 5619 5617 5616 5614 5612 5610 5608 5605 5602 5599 5596 5593 5591 5589 5587 5585 5584 5584 5584 5585 5585 5586 5587 5588 5588 5588 5588
5602 5605 5606 5607 5609 5611 5612 5614 5615 5616 5617 5617 5617 5617 5617 5617 5617 5616 5614 5613 5611 5610 5608 5606 5604 5602 5599 5597 5595 5593 5591 5589 5587 5586 5586 5585 5585 5586 5586 5586 5585 5585 5583 5582
5597 5599 5601 5603 5605 5607 5608 5610 5611 5612 5613 5613 5614 5614 5614 5614 5613 5612 5611 5610 5609 5607 5606 5604 5602 5600 5598 5597 5595 5593 5591 5590 5589 5588 5587 5586 5585 5585 5584 5583 5581 5580 5578 5576
5593 5595 5597 5599 5601 5603 5604 5605 5607 5608 5609 5609 5610 5610 5610 5610 5610 5609 5608 5607 5606 5605 5603 5602 5600 5599 5597 5596 5594 5593 5591 5590 5589 5587 5586 5585 5583 5582 5580 5579 5577 5575 5572 5569
5590 5591 5593 5595 5596 5598 5600 5601 5602 5604 5604 5605 5606 5606 5606 5606 5606 5605 5605 5604 5603 5602 5601 5600 5598 5597 5596 5594 5593 5592 5590 5589 5587 5585 5584 5582 5580 5578 5576 5574 5571 5568 5565 5562
5585 5587 5588 5590 5591 5593 5595 5596 5598 5599 5600 5601 5601 5602 5602 5602 5602 5602 5601 5601 5600 5599 5598 5597 5596 5595 5594 5592 5591 5590 5588 5586 5584 5582 5580 5578 5576 5574 5571 5569 5565 5562 5558 5554
5580 5582 5583 5585 5586 5588 5590 5591 5592 5594 5595 5596 5596 5597 5597 5597 5597 5597 5597 5597 5596 5596 5595 5594 5593 5592 5591 5590 5588 5587 5585 5583 5581 5579 5576 5574 5572 5569 5566 5563 5559 5555 5551 5546
5575 5576 5578 5579 5581 5582 5584 5586 5587 5588 5589 5590 5591 5591 5592 5592 5592 5593 5593 5593 5592 5592 5592 5591 5590 5589 5588 5586 5585 5583 5581 5579 5577 5574 5572 5569 5566 5563 5560 5556 5552 5548 5543 5538
5569 5571 5572 5574 5575 5577 5578 5580 5582 5583 5584 5585 5586 5586 5587 5587 5587 5588 5588 5588 5588 5588 5587 5587 5586 5585 5583 5582 5580 5578 5576 5574 5572 5569 5567 5564 5561 5557 5553 5549 5545 5540 5535 5529
5563 5565 5567 5568 5569 5571 5573 5574 5576 5577 5578 5579 5580 5581 5581 5582 5582 5582 5583 5583 5583 5583 5582 5582 5581 5580 5578 5577 5575 5573 5571 5569 5566 5564 5561 5558 5554 5550 5546 5542 5537 5532 5526 5520
5558 5559 5561 5562 5564 5565 5567 5568 5570 5571 5572 5573 5574 5575 5575 5576 5576 5577 5577 5577 5577 5577 5577 5576 5575 5574 5573 5572 5570 5568 5566 5563 5561 5558 5555 5551 5548 5543 5539 5534 5529 5524 5518 5511
5553 5554 5555 5557 5558 5560 5561 5562 5563 5565 5566 5567 5568 5569 5569 5570 5571 5571 5571 5571 5572 5571 5571 5570 5569 5568 5567 5566 5564 5562 5560 5557 5554 5551 5548 5545 5541 5536 5532 5527 5521 5516 5509 5502
5547 5549 5550 5551 5553 5554 5555 5556 5557 5558 5559 5560 5561 5562 5563 5564 5564 5565 5565 5565 5565 5565 5565 5564 5563 5562 5561 5560 5558 5556 5553 5551 5548 5545 5541 5537 5533 5529 5524 5519 5513 5507 5501 5494
5543 5544 5545 5546 5547 5548 5549 5550 5551 5552 5553 5554 5555 5556 5557 5557 5558 5559 5559 5559 5559 5559 5558 5558 5557 5556 5555 5553 5551 5549 5547 5544 5541 5538 5534 5530 5526 5521 5516 5511 5505 5499 5492 5485
5538 5539 5540 5541 5542 5543 5544 5545 5545 5546 5547 5548 5548 5549 5550 5551 5551 5552 5552 5553 5552 5552 5552 5551 5550 5549 5548 5546 5544 5542 5540 5537 5534 5531 5527 5523 5518 5514 5509 5503 5497 5491 5484 5477
5533 5534 5535 5536 5536 5537 5538 5539 5539 5540 5541 5541 5542 5543 5543 5544 5544 5545 5545 5546 5545 5545 5545 5544 5543 5542 5541 5539 5537 5535 5533 5530 5527 5523 5519 5515 5511 5506 5501 5495 5489 5483 5476 5468
5528 5529 5529 5530 5531 5531 5532 5532 5533 5533 5534 5535 5535 5536 5536 5537 5537 5538 5538 5538 5538 5538 5537 5537 5536 5535 5533 5532 5530 5528 5525 5522 5519 5515 5512 5507 5503 5498 5493 5487 5481 5474 5467 5460
5522 5523 5523 5524 5524 5525 5525 5526 5526 5526 5527 5527 5528 5528 5529 5529 5530 5530 5530 5530 5530 5530 5530 5529 5528 5527 5526 5524 5522 5520 5517 5514 5511 5508 5504 5500 5495 5490 5485 5479 5473 5466 5459 5451
5515 5516 5516 5517 5517 5518 5518 5518 5519 5519 5519 5519 5520 5520 5521 5521 5521 5522 5522 5522 5522 5522 5522 5521 5520 5519 5518 5516 5514 5512 5509 5506 5503 5499 5496 5491 5487 5482 5476 5471 5464 5457 5450 5443
5508 5508 5508 5509 5509 5509 5510 5510 5510 5510 5511 5511 5511 5511 5512 5512 5513 5513 5513 5514 5514 5514 5513 5512 5512 5511 5509 5508 5506 5504 5501 5498 5495 5491 5487 5483 5479 5474 5468 5462 5456 5449 5442 5435